TimeCDT,TemperatureF,Dew PointF,Humidity,Sea Level PressureIn,VisibilityMPH,Wind Direction,Wind SpeedMPH,Gust SpeedMPH,PrecipitationIn,Events,Conditions,WindDirDegrees,DateUTC
12:15 AM,67.1,60.1,78,29.87,10.0,SSE,5.8,-,N/A,,Clear,150,2013-04-16 05:15:00
12:35 AM,68.0,60.3,76,29.86,10.0,SSE,6.9,-,N/A,,Clear,160,2013-04-16 05:35:00
12:55 AM,67.8,60.3,77,29.87,10.0,South,5.8,-,N/A,,Clear,180,2013-04-16 05:55:00
1:15 AM,67.3,60.3,78,29.87,10.0,South,9.2,-,N/A,,Clear,180,2013-04-16 06:15:00
1:35 AM,67.5,60.4,78,29.89,10.0,WSW,8.1,-,N/A,,Scattered Clouds,250,2013-04-16 06:35:00
1:55 AM,60.6,56.5,86,29.91,10.0,NW,15.0,18.4,N/A,,Mostly Cloudy,320,2013-04-16 06:55:00
2:15 AM,59.0,55.4,88,29.93,7.0,NNW,11.5,-,N/A,,Overcast,330,2013-04-16 07:15:00
2:35 AM,58.6,54.9,87,29.95,5.0,NW,10.4,-,N/A,,Overcast,320,2013-04-16 07:35:00
2:55 AM,58.1,54.5,88,29.94,5.0,NNW,10.4,-,N/A,,Overcast,330,2013-04-16 07:55:00
3:15 AM,58.1,54.1,87,29.96,5.0,NNW,10.4,-,N/A,,Overcast,330,2013-04-16 08:15:00
3:35 AM,56.3,52.2,86,29.96,10.0,North,13.8,-,N/A,,Overcast,360,2013-04-16 08:35:00
3:55 AM,55.6,51.3,85,29.98,10.0,North,11.5,16.1,N/A,,Overcast,360,2013-04-16 08:55:00
4:15 AM,55.0,50.4,84,29.99,10.0,North,9.2,-,N/A,,Overcast,360,2013-04-16 09:15:00
4:35 AM,54.7,50.4,85,30.00,10.0,North,9.2,-,N/A,Thunderstorm,Overcast,360,2013-04-16 09:35:00
4:55 AM,54.9,50.2,84,30.03,10.0,North,6.9,-,N/A,,Overcast,10,2013-04-16 09:55:00
5:15 AM,53.6,49.1,85,30.03,10.0,NNE,5.8,26.5,N/A,Rain,Light Rain,20,2013-04-16 10:15:00
5:35 AM,53.4,49.6,87,30.02,10.0,East,6.9,-,N/A,Rain,Light Rain,80,2013-04-16 10:35:00
5:55 AM,53.6,50.0,88,30.02,10.0,ENE,4.6,-,N/A,Rain,Light Rain,60,2013-04-16 10:55:00
6:15 AM,53.6,50.2,88,30.04,4.0,ENE,3.5,-,0.06,Rain-Thunderstorm,Thunderstorms and Rain,70,2013-04-16 11:15:00
6:35 AM,53.4,50.9,91,30.01,10.0,ENE,6.9,-,0.10,Rain,Light Rain,70,2013-04-16 11:35:00
6:55 AM,53.6,51.8,94,30.03,10.0,NE,3.5,-,N/A,,Mostly Cloudy,50,2013-04-16 11:55:00
7:15 AM,53.6,50.9,91,30.05,10.0,NNE,4.6,-,N/A,,Overcast,20,2013-04-16 12:15:00
7:35 AM,53.8,51.1,91,30.07,10.0,North,8.1,-,N/A,,Overcast,350,2013-04-16 12:35:00
7:55 AM,53.6,50.9,91,30.08,10.0,North,9.2,-,N/A,,Overcast,360,2013-04-16 12:55:00
8:15 AM,53.6,50.9,91,30.07,10.0,NNE,5.8,-,N/A,,Overcast,20,2013-04-16 13:15:00
8:35 AM,53.2,50.5,91,30.07,10.0,NNE,8.1,-,N/A,,Overcast,30,2013-04-16 13:35:00
8:55 AM,53.6,50.9,91,30.07,10.0,North,8.1,-,N/A,,Overcast,10,2013-04-16 13:55:00
9:15 AM,53.8,50.9,90,30.07,10.0,North,9.2,-,N/A,,Overcast,10,2013-04-16 14:15:00
9:35 AM,53.8,50.9,90,30.07,10.0,NE,5.8,-,N/A,Rain,Light Rain,40,2013-04-16 14:35:00
9:55 AM,53.6,50.9,91,30.08,4.0,NNE,8.1,-,N/A,,Overcast,30,2013-04-16 14:55:00
10:15 AM,53.8,51.1,91,30.08,5.0,North,6.9,-,N/A,,Overcast,10,2013-04-16 15:15:00
10:35 AM,54.0,51.3,91,30.08,5.0,North,4.6,-,N/A,Thunderstorm,Overcast,10,2013-04-16 15:35:00
10:55 AM,54.0,51.6,92,30.09,3.0,NNE,5.8,-,N/A,,Overcast,20,2013-04-16 15:55:00
11:15 AM,54.0,51.8,92,30.08,2.5,NNE,6.9,-,N/A,,Light Drizzle,30,2013-04-16 16:15:00
11:35 AM,54.5,52.2,92,30.08,3.0,NNE,8.1,-,N/A,,Overcast,20,2013-04-16 16:35:00
11:55 AM,54.7,52.5,92,30.09,2.0,North,5.8,-,N/A,,Overcast,10,2013-04-16 16:55:00
12:15 PM,54.0,52.0,93,30.10,1.5,North,9.2,-,N/A,Thunderstorm,Overcast,350,2013-04-16 17:15:00
12:35 PM,53.8,51.8,93,30.10,1.5,NNW,8.1,-,N/A,,Overcast,340,2013-04-16 17:35:00
12:55 PM,53.1,50.9,92,30.09,1.8,North,11.5,-,N/A,,Overcast,360,2013-04-16 17:55:00
1:15 PM,52.9,50.5,92,30.10,1.8,North,12.7,-,N/A,,Overcast,360,2013-04-16 18:15:00
1:35 PM,52.7,50.4,92,30.10,2.0,North,9.2,-,N/A,,Overcast,10,2013-04-16 18:35:00
1:55 PM,52.9,50.5,92,30.09,2.0,NNE,10.4,-,N/A,,Overcast,30,2013-04-16 18:55:00
2:15 PM,53.8,51.3,91,30.10,5.0,NNE,8.1,-,N/A,Thunderstorm,Overcast,30,2013-04-16 19:15:00
2:35 PM,53.8,51.1,91,30.10,10.0,North,9.2,-,N/A,,Overcast,10,2013-04-16 19:35:00
2:55 PM,54.0,51.4,91,30.10,10.0,NNE,8.1,-,N/A,Thunderstorm,Overcast,30,2013-04-16 19:55:00
3:15 PM,54.3,51.6,91,30.08,10.0,NNE,10.4,-,N/A,,Overcast,20,2013-04-16 20:15:00
3:35 PM,54.7,52.0,91,30.08,10.0,NE,10.4,-,N/A,,Overcast,40,2013-04-16 20:35:00
3:55 PM,55.0,51.8,89,30.08,10.0,NE,8.1,-,N/A,,Overcast,50,2013-04-16 20:55:00
4:15 PM,55.8,52.5,89,30.09,10.0,NE,4.6,-,N/A,,Overcast,50,2013-04-16 21:15:00
4:35 PM,56.5,53.2,89,30.09,10.0,North,8.1,-,N/A,,Overcast,350,2013-04-16 21:35:00
4:55 PM,56.8,53.2,88,30.08,10.0,North,6.9,-,N/A,,Overcast,350,2013-04-16 21:55:00
5:15 PM,56.7,53.2,88,30.08,10.0,North,11.5,-,N/A,,Overcast,350,2013-04-16 22:15:00
5:35 PM,56.1,52.7,88,30.08,10.0,North,8.1,-,N/A,,Overcast,360,2013-04-16 22:35:00
5:55 PM,55.9,52.5,88,30.08,10.0,NNE,8.1,-,N/A,,Overcast,30,2013-04-16 22:55:00
6:15 PM,55.2,51.4,87,30.09,10.0,NNE,10.4,-,N/A,,Overcast,20,2013-04-16 23:15:00
6:35 PM,54.3,50.4,86,30.10,10.0,NNE,9.2,-,N/A,,Overcast,20,2013-04-16 23:35:00
6:55 PM,53.8,50.0,87,30.09,10.0,NNE,8.1,-,N/A,,Overcast,20,2013-04-16 23:55:00
7:15 PM,53.6,50.0,88,30.11,10.0,NNE,5.8,-,N/A,,Overcast,20,2013-04-17 00:15:00
7:35 PM,53.6,50.0,88,30.11,10.0,North,8.1,-,N/A,,Overcast,10,2013-04-17 00:35:00
7:55 PM,53.8,50.0,87,30.11,10.0,NNE,6.9,-,N/A,,Overcast,30,2013-04-17 00:55:00
8:15 PM,53.6,50.0,88,30.11,10.0,NE,8.1,-,N/A,,Overcast,50,2013-04-17 01:15:00
8:35 PM,53.4,50.2,89,30.13,7.0,NNE,6.9,-,N/A,Thunderstorm,Thunderstorm,30,2013-04-17 01:35:00
8:55 PM,53.2,50.5,91,30.14,4.0,North,5.8,-,N/A,Rain-Thunderstorm,Light Thunderstorms and Rain,10,2013-04-17 01:55:00
9:15 PM,53.1,50.5,91,30.13,4.0,NE,6.9,-,N/A,Thunderstorm,Overcast,40,2013-04-17 02:15:00
9:35 PM,52.9,50.5,92,30.13,5.0,North,6.9,-,N/A,Thunderstorm,Overcast,10,2013-04-17 02:35:00
9:55 PM,53.2,50.9,92,30.11,5.0,NNE,8.1,-,N/A,Thunderstorm,Overcast,30,2013-04-17 02:55:00
10:15 PM,53.6,50.9,91,30.13,5.0,North,5.8,-,N/A,Rain,Light Rain,10,2013-04-17 03:15:00
10:35 PM,53.6,50.9,91,30.11,5.0,NE,9.2,-,0.01,Thunderstorm,Overcast,50,2013-04-17 03:35:00
10:55 PM,54.0,51.1,90,30.12,5.0,NE,4.6,-,0.03,Rain,Light Rain,40,2013-04-17 03:55:00
11:15 PM,54.1,51.4,91,30.12,5.0,North,8.1,-,N/A,Thunderstorm,Overcast,10,2013-04-17 04:15:00
11:35 PM,54.1,51.3,90,30.11,7.0,NE,10.4,-,N/A,,Overcast,40,2013-04-17 04:35:00
11:55 PM,54.1,51.3,90,30.12,7.0,NNW,6.9,-,N/A,,Overcast,340,2013-04-17 04:55:00